Weather History for KAGC - November, 2012

Change the Weather History Date:

Sunday, November 18, 2012

  Actual Average Record
Temperature  
Mean Temperature 44 °F -  
Max Temperature 55 °F 51 °F 69 °F (1987)
Min Temperature 34 °F 30 °F 14 °F (2014)
Degree Days  
Heating Degree Days 20    
Moisture  
Dew Point 26 °F    
Average Humidity 50    
Maximum Humidity 70    
Minimum Humidity 34    
Precipitation  
Precipitation 0.00 in - - ()
Sea Level Pressure  
Sea Level Pressure 30.51 in    
Wind  
Wind Speed 4 mph (ESE)    
Max Wind Speed 7 mph    
Max Gust Speed -    
Visibility 10 miles    
Events      
Averages and records for this station are not official NWS values.
T = Trace of Precipitation, MM = Missing Value Source: NWS Daily Summary

Daily Weather History Graph

Daily Weather History Graph

Search for Another Location

Airport or City:

Trip Planner

Search our weather history database for the weather conditions in past years. The results will help you decide how hot, cold, wet, or windy it might be!

Date:

Astronomy

Nov. 18, 2012 Rise Set
Actual Time 7:09 AM EST 4:59 PM EST
Civil Twilight 6:40 AM EST 5:29 PM EST
Nautical Twilight 6:07 AM EST 6:02 PM EST
Astronomical Twilight 5:34 AM EST 6:34 PM EST
Moon 11:35 AM EST (11/18) 10:17 PM EST (11/18)
Length of Visible Light 10h 49m
Length of Day
9h 50m
Waxing Crescent, 30% of the Moon is Illuminated
Nov 18
Waxing Crescent
Nov 20
First Quarter
Nov 28
Full
Dec 6
Last Quarter
Dec 13
New

Hourly Weather History & Observations

Time (EST) Temp. Windchill Dew Point Humidity Pressure Visibility Wind Dir Wind Speed Gust Speed Precip Events Conditions
12:53 AM 39.9 °F 35.1 °F 25.0 °F 55% 30.55 in 10.0 mi East 6.9 mph - N/A   Clear
1:53 AM 39.0 °F - 25.0 °F 57% 30.54 in 10.0 mi Calm Calm - N/A   Clear
2:53 AM 37.4 °F - 24.8 °F 60% 30.51 in 10.0 mi Calm Calm - N/A   Clear
3:53 AM 36.0 °F - 25.0 °F 64% 30.54 in 10.0 mi Calm Calm - N/A   Clear
4:53 AM 36.0 °F - 25.0 °F 64% 30.55 in 10.0 mi Calm Calm - N/A   Clear
5:53 AM 36.0 °F 33.3 °F 25.0 °F 64% 30.56 in 10.0 mi ENE 3.5 mph - N/A   Clear
6:53 AM 34.0 °F 29.8 °F 25.0 °F 70% 30.56 in 10.0 mi ENE 4.6 mph - N/A   Clear
7:53 AM 36.0 °F 33.3 °F 25.0 °F 64% 30.56 in 10.0 mi ESE 3.5 mph - N/A   Clear
8:53 AM 41.0 °F - 27.0 °F 57% 30.56 in 10.0 mi Calm Calm - N/A   Clear
9:53 AM 45.0 °F 41.2 °F 27.0 °F 49% 30.55 in 10.0 mi ESE 6.9 mph - N/A   Clear
10:53 AM 48.9 °F - 28.9 °F 46% 30.55 in 10.0 mi ESE 6.9 mph - N/A   Clear
11:53 AM 51.1 °F - 28.0 °F 41% 30.52 in 10.0 mi ESE 5.8 mph - N/A   Clear
12:53 PM 54.0 °F - 28.0 °F 37% 30.49 in 10.0 mi SE 5.8 mph - N/A   Clear
1:53 PM 55.9 °F - 28.0 °F 34% 30.47 in 10.0 mi East 4.6 mph - N/A   Clear
2:53 PM 55.9 °F - 28.0 °F 34% 30.46 in 10.0 mi East 6.9 mph - N/A   Clear
3:53 PM 55.0 °F - 28.9 °F 37% 30.47 in 10.0 mi Calm Calm - N/A   Clear
4:53 PM 52.0 °F - 27.0 °F 38% 30.47 in 10.0 mi East 4.6 mph - N/A   Clear
5:53 PM 48.9 °F - 26.1 °F 41% 30.48 in 10.0 mi ESE 3.5 mph - N/A   Clear
6:53 PM 48.9 °F - 25.0 °F 39% 30.49 in 10.0 mi SE 3.5 mph - N/A   Clear
7:53 PM 46.0 °F 43.9 °F 25.0 °F 44% 30.50 in 10.0 mi ESE 4.6 mph - N/A   Clear
8:53 PM 44.1 °F 40.1 °F 26.1 °F 49% 30.48 in 10.0 mi ESE 6.9 mph - N/A   Clear
9:53 PM 43.0 °F 39.5 °F 27.0 °F 53% 30.48 in 10.0 mi SE 5.8 mph - N/A   Clear
10:53 PM 42.1 °F 39.2 °F 27.0 °F 55% 30.46 in 10.0 mi SE 4.6 mph - N/A   Clear
11:53 PM 41.0 °F 39.0 °F 27.0 °F 57% 30.46 in 10.0 mi East 3.5 mph - N/A   Clear